DW1454 Weather Reports


Display with metric or nautical units.
time (UTC)temp
F
wind
direction
speed
MPH
gust
MPH
rain 1hr
in
rain 24hr
in
rain mn
in
humidity
%
barometer
mb
20260509012005 41 0.0 0.0 0.00 0.00 0.00 56 1004.2
20260509011006 41 0.0 0.0 0.00 0.00 0.00 57 1004.1
20260509010006 41 0.0 0.0 0.00 0.00 0.00 56 1004.3
20260509005005 40 0.0 0.0 0.00 0.00 0.00 53 1004.4
20260509004006 40 0.0 0.0 0.00 0.00 0.00 51 1004.5
20260509003006 42 0.0 0.0 0.00 0.00 0.00 49 1004.6
20260509002216 43 0.0 0.0 0.00 0.00 0.00 45 1004.7
20260509001007 45 0.0 0.0 0.00 0.00 0.00 42 1004.7
20260509000005 47 0.0 0.0 0.00 0.00 0.00 43 1004.7
20260508235216 48 0.0 0.0 0.00 0.00 0.00 46 1004.7
20260508234005 46 0.0 0.0 0.00 0.00 0.00 47 1004.9
20260508233005 46 0.0 0.0 0.00 0.00 0.00 48 1005.0
20260508232006 45 0.0 0.0 0.00 0.00 0.00 49 1005.1
20260508231007 43 0.0 0.0 0.00 0.00 0.00 48 1005.3
20260508230006 43 0.0 0.0 0.00 0.00 0.00 48 1005.4
20260508225006 44 0.0 0.0 0.00 0.00 0.00 47 1005.6
20260508224007 46 0.0 0.0 0.00 0.00 0.00 44 1005.6
20260508223215 47 0.0 0.0 0.00 0.00 0.00 46 1005.6
20260508222005 47 0.0 0.0 0.00 0.00 0.00 47 1005.7
20260508221005 46 0.0 0.0 0.00 0.00 0.00 48 1005.8
20260508220217 46 0.0 0.0 0.00 0.00 0.00 49 1005.9
20260508215006 45 0.0 0.0 0.00 0.00 0.00 49 1006.1
20260508214006 45 0.0 0.0 0.00 0.00 0.00 52 1006.3
20260508213005 45 0.0 0.0 0.00 0.00 0.00 53 1006.5
20260508212217 45 0.0 0.0 0.00 0.00 0.00 54 1006.7
20260508211006 43 0.0 0.0 0.00 0.00 0.00 55 1006.9
20260508210006 43 0.0 0.0 0.00 0.00 0.00 56 1007.1
20260508205005 41 0.0 0.0 0.00 0.00 0.00 55 1007.2
20260508204006 40 0.0 0.0 0.00 0.00 0.00 55 1007.3
20260508203005 40 0.0 0.0 0.00 0.00 0.00 56 1007.5
20260508202216 40 0.0 0.0 0.00 0.00 0.00 56 1007.6
20260508201006 40 0.0 0.0 0.00 0.00 0.00 56 1007.8
20260508200006 40 0.0 0.0 0.00 0.00 0.00 56 1007.7
20260508195005 39 0.0 0.0 0.00 0.00 0.00 54 1007.8
20260508194216 38 0.0 0.0 0.00 0.00 0.00 51 1007.9
20260508193005 38 0.0 0.0 0.00 0.00 0.00 49 1008.0
20260508192005 40 0.0 0.0 0.00 0.00 0.00 47 1008.0
20260508191005 43 0.0 0.0 0.00 0.00 0.00 44 1008.1
20260508190006 45 0.0 0.0 0.00 0.00 0.00 42 1008.2
20260508185216 47 0.0 0.0 0.00 0.00 0.00 43 1008.3
20260508184006 46 0.0 0.0 0.00 0.00 0.00 43 1008.5
20260508183006 47 0.0 0.0 0.00 0.00 0.00 44 1008.7
20260508182006 46 0.0 0.0 0.00 0.00 0.00 46 1008.8
20260508181006 45 0.0 0.0 0.00 0.00 0.00 47 1008.9
20260508180216 46 0.0 0.0 0.00 0.00 0.00 48 1009.1
20260508175006 45 0.0 0.0 0.00 0.00 0.00 49 1009.2
20260508174005 44 0.0 0.0 0.00 0.00 0.00 50 1009.3
20260508173006 43 0.0 0.0 0.00 0.00 0.00 51 1009.4
20260508172006 42 0.0 0.0 0.00 0.00 0.00 52 1009.6
20260508171006 40 0.0 0.0 0.00 0.00 0.00 54 1009.7
20260508170217 39 0.0 0.0 0.00 0.00 0.00 55 1009.9
20260508165006 38 0.0 0.0 0.00 0.00 0.00 57 1010.0
20260508164006 36 0.0 0.0 0.00 0.00 0.00 58 1010.2
20260508163005 35 0.0 0.0 0.00 0.00 0.00 58 1010.4
20260508162006 34 0.0 0.0 0.00 0.00 0.00 58 1010.5
20260508161006 33 0.0 0.0 0.00 0.00 0.00 58 1010.6
20260508160215 33 0.0 0.0 0.00 0.00 0.00 58 1010.8
20260508155215 33 0.0 0.0 0.00 0.00 0.00 58 1010.9
20260508154005 32 0.0 0.0 0.00 0.00 0.00 58 1011.0
20260508153006 32 0.0 0.0 0.00 0.00 0.00 58 1011.1
20260508152005 31 0.0 0.0 0.00 0.00 0.00 58 1011.2
20260508151005 31 0.0 0.0 0.00 0.00 0.00 58 1011.3
20260508150006 30 0.0 0.0 0.00 0.00 0.00 58 1011.4
20260508145216 30 0.0 0.0 0.00 0.00 0.00 58 1011.4
20260508144005 29 0.0 0.0 0.00 0.00 0.00 58 1011.5
20260508143005 29 0.0 0.0 0.00 0.00 0.00 58 1011.7
20260508142011 28 0.0 0.0 0.00 0.00 0.00 57 1011.8
20260508141006 28 0.0 0.0 0.00 0.00 0.00 57 1011.9
20260508140006 28 0.0 0.0 0.00 0.00 0.00 57 1012.0
20260508135005 27 0.0 0.0 0.00 0.00 0.00 56 1012.1
20260508134006 27 0.0 0.0 0.00 0.00 0.00 56 1012.2
20260508133218 27 0.0 0.0 0.00 0.00 0.00 56 1012.2
20260508132005 27 0.0 0.0 0.00 0.00 0.00 56 1012.3
20260508131005 27 0.0 0.0 0.00 0.00 0.00 55 1012.4
20260508130006 27 0.0 0.0 0.00 0.00 0.00 56 1012.4
20260508125006 28 0.0 0.0 0.00 0.00 0.00 56 1012.5
20260508124006 28 0.0 0.0 0.00 0.00 0.00 56 1012.6
20260508123006 27 0.0 0.0 0.00 0.00 0.00 56 1012.7
20260508122006 28 0.0 0.0 0.00 0.00 0.00 55 1012.8
20260508121005 27 0.0 0.0 0.00 0.00 0.00 55 1013.0
20260508120005 28 0.0 0.0 0.00 0.00 0.00 56 1013.0
20260508115005 28 0.0 0.0 0.00 0.00 0.00 55 1013.0
20260508114215 28 0.0 0.0 0.00 0.00 0.00 56 1013.1
20260508113006 28 0.0 0.0 0.00 0.00 0.00 55 1013.3
20260508112006 29 0.0 0.0 0.00 0.00 0.00 55 1013.4
20260508111006 29 0.0 0.0 0.00 0.00 0.00 55 1013.4
20260508110005 29 0.0 0.0 0.00 0.00 0.00 55 1013.5
20260508105005 29 0.0 0.0 0.00 0.00 0.00 55 1013.5
20260508104005 29 0.0 0.0 0.00 0.00 0.00 55 1013.6
20260508103005 29 0.0 0.0 0.00 0.00 0.00 55 1013.7
20260508102005 29 0.0 0.0 0.00 0.00 0.00 55 1013.7
20260508101007 29 0.0 0.0 0.00 0.00 0.00 55 1013.9
20260508100005 29 0.0 0.0 0.00 0.00 0.00 55 1013.9
20260508095005 30 0.0 0.0 0.00 0.00 0.00 55 1014.0
20260508094005 30 0.0 0.0 0.00 0.00 0.00 55 1014.2
20260508093006 29 0.0 0.0 0.00 0.00 0.00 55 1014.3
20260508092006 29 0.0 0.0 0.00 0.00 0.00 55 1014.4
20260508091006 29 0.0 0.0 0.00 0.00 0.00 54 1014.3
20260508090006 29 0.0 0.0 0.00 0.00 0.00 54 1014.5
20260508085006 29 0.0 0.0 0.00 0.00 0.00 54 1014.4
20260508084216 29 0.0 0.0 0.00 0.00 0.00 54 1014.4
20260508083006 29 0.0 0.0 0.00 0.00 0.00 53 1014.4
20260508082216 29 0.0 0.0 0.00 0.00 0.00 54 1014.5
20260508081005 29 0.0 0.0 0.00 0.00 0.00 54 1014.6
20260508080216 29 0.0 0.0 0.00 0.00 0.00 52 1014.6
20260508075006 28 0.0 0.0 0.00 0.00 0.00 52 1014.6
20260508074006 28 0.0 0.0 0.00 0.00 0.00 52 1014.6
20260508073006 29 0.0 0.0 0.00 0.00 0.00 51 1014.7
20260508072005 30 0.0 0.0 0.00 0.00 0.00 51 1014.7
20260508071216 30 0.0 0.0 0.00 0.00 0.00 51 1014.7
20260508070006 31 0.0 0.0 0.00 0.00 0.00 51 1014.7
20260508065005 32 0.0 0.0 0.00 0.00 0.00 51 1014.7
20260508064006 33 0.0 0.0 0.00 0.00 0.00 51 1014.7
20260508063006 34 0.0 0.0 0.00 0.00 0.00 50 1014.8
20260508062005 35 0.0 0.0 0.00 0.00 0.00 51 1014.7
20260508061215 36 0.0 0.0 0.00 0.00 0.00 50 1014.8
20260508060007 36 0.0 0.0 0.00 0.00 0.00 50 1014.7
20260508055006 37 0.0 0.0 0.00 0.00 0.00 49 1014.7
20260508054006 38 0.0 0.0 0.00 0.00 0.00 49 1014.7
20260508053005 39 0.0 0.0 0.00 0.00 0.00 49 1014.8
20260508052006 39 0.0 0.0 0.00 0.00 0.00 48 1014.8
20260508051005 40 0.0 0.0 0.00 0.00 0.00 48 1014.9
20260508050006 40 0.0 0.0 0.00 0.00 0.00 47 1015.0
20260508045215 40 0.0 0.0 0.00 0.00 0.00 46 1015.1
20260508044006 41 0.0 0.0 0.00 0.00 0.00 46 1015.1
20260508043006 41 0.0 0.0 0.00 0.00 0.00 46 1015.2
20260508042006 41 0.0 0.0 0.00 0.00 0.00 44 1015.3
20260508041006 41 0.0 0.0 0.00 0.00 0.00 45 1015.4
20260508040006 42 0.0 0.0 0.00 0.00 0.00 45 1015.5
20260508035006 42 0.0 0.0 0.00 0.00 0.00 45 1015.5
20260508034216 42 0.0 0.0 0.00 0.00 0.00 45 1015.5
20260508033006 43 0.0 0.0 0.00 0.00 0.00 45 1015.5
20260508032006 43 0.0 0.0 0.00 0.00 0.00 46 1015.5
20260508031006 42 0.0 0.0 0.00 0.00 0.00 49 1015.6
20260508030006 41 0.0 0.0 0.00 0.00 0.00 50 1015.6
20260508025006 39 0.0 0.0 0.00 0.00 0.00 51 1015.6
20260508024005 38 0.0 0.0 0.00 0.00 0.00 48 1015.7
20260508023006 38 0.0 0.0 0.00 0.00 0.00 45 1016.2
20260508022216 39 0.0 0.0 0.00 0.00 0.00 40 1016.1
20260508021216 41 0.0 0.0 0.00 0.00 0.00 35 1015.8
20260508020006 44 0.0 0.0 0.00 0.00 0.00 31 1015.6
20260508015006 46 0.0 0.0 0.00 0.00 0.00 28 1015.1
20260508014006 47 0.0 0.0 0.00 0.00 0.00 27 1015.0
20260508013005 47 0.0 0.0 0.00 0.00 0.00 26 1015.0